Tracking 22879 objects as of 20-Apr-2021
HD Live streaming from Space Station
objects crossing your sky now

STARLINK-1311


STARLINK-1311 is no longer on orbit
STARLINK-1311 is classified as:


NORAD ID: 45363
Int'l Code: 2020-019D
Perigee: N/A
Apogee: N/A
Inclination: N/A
Period: N/A
Semi major axis: N/A
RCS: N/A
Launch date: March 18, 2020
Source: United States (US)
Launch site: AIR FORCE EASTERN TEST RANGE (AFETR)
Decay date: 2020-09-25
aabbcc
Your satellite tracking list
Your tracking list is empty




NASA's NSSDC Master Catalog

Two Line Element Set (TLE):
1 45363U 20019D   20269.17984688  .12645809  12369-4  14683-2 0  9997
2 45363  52.9669  21.1686 0008084 329.3945  96.5453 16.35871284 30751
Source of the keplerian elements: AFSPC